When you browse on this site, cookies collect data to enhance your experience and personalize the content and advertising you see.
Visit our Privacy Policy to learn more. By continuing to use the site, you agree to this use of cookies and data.
  • In Hungary
  • List of Countries
  • For 7 days
  • Water Temperature
  • Satellite Maps
  • Weather Map
  • News
  • Weather Widgets
  • user-avatar
    Login

    Hourly Weather Castellammare di Stabia

    Today, 18 January, Friday

    Time Temperature Precipitation Wind Pressure Humidity
    00:00 +10°C° 0.3 mm 5 mps 758 mmHg 82%
    01:00 +11°C° 0.3 mm 4 mps 758 mmHg 82%
    02:00 +11°C° 0.7 mm 4 mps 758 mmHg 83%
    03:00 +11°C° 0.7 mm 4 mps 757 mmHg 84%
    04:00 +11°C° 0.7 mm 4 mps 757 mmHg 85%
    05:00 +10°C° 0.8 mm 4 mps 757 mmHg 86%
    06:00 +10°C° 0.8 mm 3 mps 757 mmHg 86%
    07:00 +10°C° 0.8 mm 3 mps 757 mmHg 87%
    08:00 +11°C° 0.4 mm 3 mps 757 mmHg 83%
    09:00 +12°C° 0.4 mm 3 mps 757 mmHg 79%
    10:00 +12°C° 0.4 mm 3 mps 757 mmHg 75%
    11:00 +13°C° 0.3 mm 3 mps 757 mmHg 71%
    12:00 +13°C° 0.3 mm 3 mps 757 mmHg 67%
    13:00 +14°C° 0.3 mm 3 mps 757 mmHg 63%
    14:00 +13°C° 0.3 mm 3 mps 757 mmHg 65%
    15:00 +13°C° 0.3 mm 3 mps 757 mmHg 66%
    16:00 +14°C° 0.3 mm 2 mps 757 mmHg 68%
    17:00 +13°C° 0.4 mm 2 mps 757 mmHg 72%
    18:00 +13°C° 0.4 mm 2 mps 757 mmHg 75%
    19:00 +12°C° 0.4 mm 2 mps 757 mmHg 79%
    20:00 +12°C° 0.2 mm 2 mps 757 mmHg 80%
    21:00 +11°C° 0.2 mm 3 mps 758 mmHg 81%
    22:00 +11°C° 0.2 mm 3 mps 758 mmHg 82%
    23:00 +11°C° 0.6 mm 3 mps 758 mmHg 84%

    Tomorrow, 19 January, Saturday

    Time Temperature Precipitation Wind Pressure Humidity
    00:00 +10°C° 0.6 mm 3 mps 758 mmHg 85%
    01:00 +10°C° 0.6 mm 3 mps 758 mmHg 86%
    02:00 +10°C° 1.5 mm 3 mps 757 mmHg 87%
    03:00 +10°C° 1.5 mm 3 mps 757 mmHg 89%
    04:00 +10°C° 1.5 mm 2 mps 757 mmHg 91%
    05:00 +10°C° 0.6 mm 2 mps 757 mmHg 91%
    06:00 +10°C° 0.6 mm 2 mps 757 mmHg 92%
    07:00 +11°C° 0.6 mm 1 mps 757 mmHg 93%
    08:00 +11°C° 0.5 mm 1 mps 757 mmHg 87%
    09:00 +12°C° 0.5 mm 2 mps 758 mmHg 81%
    10:00 +12°C° 0.5 mm 2 mps 758 mmHg 76%
    11:00 +13°C° 0.1 mm 2 mps 757 mmHg 70%
    12:00 +12°C° 0.1 mm 3 mps 757 mmHg 64%
    13:00 +13°C° 0.1 mm 3 mps 757 mmHg 58%
    14:00 +12°C° 0 mm 3 mps 757 mmHg 57%
    15:00 +12°C° 0 mm 3 mps 757 mmHg 55%
    16:00 +11°C° 0 mm 3 mps 757 mmHg 54%
    17:00 +11°C° 0 mm 3 mps 757 mmHg 56%
    18:00 +12°C° 0 mm 2 mps 757 mmHg 57%
    19:00 +10°C° 0 mm 2 mps 757 mmHg 59%
    20:00 +10°C° 0 mm 2 mps 758 mmHg 60%
    21:00 +10°C° 0 mm 2 mps 758 mmHg 61%
    22:00 +9°C° 0 mm 2 mps 758 mmHg 62%
    23:00 +9°C° 0 mm 2 mps 758 mmHg 64%

    Day after tomorrow, 20 January, Sunday

    Time Temperature Precipitation Wind Pressure Humidity
    00:00 +9°C° 0 mm 2 mps 758 mmHg 65%
    01:00 +9°C° 0 mm 2 mps 758 mmHg 67%
    02:00 +9°C° 0.1 mm 2 mps 758 mmHg 68%
    03:00 +9°C° 0.1 mm 2 mps 758 mmHg 69%
    04:00 +9°C° 0.1 mm 2 mps 758 mmHg 69%
    05:00 +9°C° 0.1 mm 2 mps 758 mmHg 71%
    06:00 +9°C° 0.1 mm 2 mps 758 mmHg 72%
    07:00 +9°C° 0.1 mm 2 mps 758 mmHg 73%
    08:00 +9°C° 0 mm 2 mps 758 mmHg 72%
    09:00 +10°C° 0 mm 3 mps 758 mmHg 70%
    10:00 +10°C° 0 mm 3 mps 758 mmHg 69%
    11:00 +11°C° 0 mm 3 mps 758 mmHg 67%
    12:00 +12°C° 0 mm 3 mps 758 mmHg 64%
    13:00 +12°C° 0 mm 3 mps 757 mmHg 62%
    14:00 +12°C° 0 mm 3 mps 757 mmHg 63%
    15:00 +12°C° 0 mm 3 mps 757 mmHg 63%
    16:00 +12°C° 0 mm 3 mps 757 mmHg 63%
    17:00 +12°C° 0.1 mm 3 mps 757 mmHg 66%
    18:00 +11°C° 0.1 mm 3 mps 757 mmHg 70%
    19:00 +11°C° 0.1 mm 3 mps 757 mmHg 73%
    20:00 +11°C° 0.3 mm 3 mps 758 mmHg 74%
    21:00 +10°C° 0.3 mm 3 mps 758 mmHg 75%
    22:00 +10°C° 0.3 mm 3 mps 758 mmHg 77%
    23:00 +10°C° 0.2 mm 3 mps 758 mmHg 76%

    21 January, Monday

    Time Temperature Precipitation Wind Pressure Humidity
    00:00 +10°C° 0.2 mm 3 mps 758 mmHg 76%
    01:00 +10°C° 0.2 mm 4 mps 758 mmHg 75%
    02:00 +10°C° 0 mm 4 mps 757 mmHg 74%
    03:00 +10°C° 0 mm 4 mps 757 mmHg 73%
    04:00 +8°C° 0 mm 4 mps 757 mmHg 72%
    05:00 +8°C° 0 mm 4 mps 757 mmHg 70%
    06:00 +8°C° 0 mm 4 mps 757 mmHg 69%
    07:00 +8°C° 0 mm 4 mps 757 mmHg 67%
    08:00 +10°C° 0 mm 4 mps 757 mmHg 63%
    09:00 +10°C° 0 mm 4 mps 757 mmHg 59%
    10:00 +11°C° 0 mm 4 mps 757 mmHg 54%
    11:00 +11°C° 0 mm 4 mps 756 mmHg 53%
    12:00 +12°C° 0 mm 4 mps 756 mmHg 51%
    13:00 +12°C° 0 mm 4 mps 755 mmHg 49%
    14:00 +12°C° 0.1 mm 4 mps 755 mmHg 50%
    15:00 +12°C° 0.1 mm 4 mps 755 mmHg 51%
    16:00 +12°C° 0.1 mm 4 mps 754 mmHg 52%
    17:00 +12°C° 0.2 mm 4 mps 754 mmHg 56%
    18:00 +11°C° 0.2 mm 4 mps 754 mmHg 60%
    19:00 +11°C° 0.2 mm 4 mps 754 mmHg 64%
    20:00 +11°C° 0.4 mm 4 mps 754 mmHg 67%
    21:00 +11°C° 0.4 mm 4 mps 754 mmHg 71%
    22:00 +10°C° 0.4 mm 4 mps 754 mmHg 74%
    23:00 +10°C° 1 mm 5 mps 753 mmHg 78%

    22 January, Tuesday

    Time Temperature Precipitation Wind Pressure Humidity
    00:00 +10°C° 1 mm 5 mps 753 mmHg 81%
    01:00 +10°C° 1 mm 5 mps 752 mmHg 85%
    02:00 +10°C° 2.2 mm 5 mps 752 mmHg 87%
    03:00 +10°C° 2.2 mm 5 mps 751 mmHg 88%
    04:00 +10°C° 2.2 mm 5 mps 751 mmHg 90%
    05:00 +10°C° 1.5 mm 5 mps 751 mmHg 90%
    06:00 +10°C° 1.5 mm 5 mps 751 mmHg 90%
    07:00 +11°C° 1.5 mm 4 mps 750 mmHg 91%
    08:00 +10°C° 0.8 mm 5 mps 750 mmHg 88%
    09:00 +10°C° 0.8 mm 5 mps 750 mmHg 84%
    10:00 +10°C° 0.8 mm 6 mps 750 mmHg 81%
    11:00 +10°C° 0.2 mm 6 mps 750 mmHg 77%
    12:00 +10°C° 0.2 mm 6 mps 750 mmHg 73%
    13:00 +10°C° 0.2 mm 7 mps 749 mmHg 69%
    14:00 +10°C° 0.4 mm 7 mps 749 mmHg 69%
    15:00 +10°C° 0.4 mm 8 mps 749 mmHg 69%
    16:00 +9°C° 0.4 mm 8 mps 748 mmHg 69%
    17:00 +9°C° 0.6 mm 7 mps 748 mmHg 71%
    18:00 +9°C° 0.6 mm 7 mps 748 mmHg 72%
    19:00 +8°C° 0.6 mm 6 mps 748 mmHg 73%
    20:00 +8°C° 1 mm 6 mps 748 mmHg 74%
    21:00 +8°C° 1 mm 6 mps 748 mmHg 75%
    22:00 +8°C° 1 mm 6 mps 748 mmHg 76%
    23:00 +8°C° 0.9 mm 6 mps 748 mmHg 73%

    23 January, Wednesday

    Time Temperature Precipitation Wind Pressure Humidity
    00:00 +8°C° 0.9 mm 6 mps 748 mmHg 71%
    01:00 +8°C° 0.9 mm 6 mps 747 mmHg 69%
    02:00 +8°C° 0.3 mm 6 mps 747 mmHg 69%
    03:00 +8°C° 0.3 mm 6 mps 746 mmHg 69%
    04:00 +8°C° 0.3 mm 5 mps 746 mmHg 69%
    05:00 +8°C° 1 mm 6 mps 745 mmHg 72%
    06:00 +8°C° 1 mm 7 mps 744 mmHg 74%
    07:00 +7°C° 1 mm 8 mps 744 mmHg 76%
    08:00 +7°C° 1.8 mm 9 mps 743 mmHg 77%
    09:00 +8°C° 1.8 mm 10 mps 742 mmHg 77%
    10:00 +8°C° 1.8 mm 12 mps 742 mmHg 77%
    11:00 +7°C° 4.5 mm 10 mps 742 mmHg 76%
    12:00 +6°C° 4.5 mm 7 mps 741 mmHg 76%
    13:00 +7°C° 4.5 mm 5 mps 741 mmHg 75%
    14:00 +7°C° 0.7 mm 5 mps 741 mmHg 69%
    15:00 +8°C° 0.7 mm 4 mps 741 mmHg 64%
    16:00 +8°C° 0.7 mm 4 mps 740 mmHg 59%
    17:00 +8°C° 0 mm 4 mps 740 mmHg 60%
    18:00 +7°C° 0 mm 5 mps 740 mmHg 61%
    19:00 +7°C° 0 mm 6 mps 740 mmHg 63%
    20:00 +6°C° 0.1 mm 7 mps 739 mmHg 65%
    21:00 +6°C° 0.1 mm 7 mps 738 mmHg 66%
    22:00 +6°C° 0.1 mm 8 mps 737 mmHg 68%
    23:00 +6°C° 0.4 mm 10 mps 735 mmHg 68%
    Show more